User: anonymous   Login
Location: Mentone
(34.5413°N, 85.5351°W)
Time: 19:28:13
(UTC-06:00)
Language:

ATLAS 5 CENTAUR R/B - Orbit

View from above orbital plane
View from above orbital plane
View from above satellite
View from above satellite

Ground track
Ground track

The orbit data is extracted from the following two-line orbital elements,

1 31702U 07027B   19037.76594946 0.00000000  00000-0  00000-0 0    02
2 31702  63.3604 274.6816 0341000  10.4022 349.5978 14.18679295    05
Epoch (UTC): 06 February 2019 18:22:58
Eccentricity: 0.0341000
inclination: 63.3604°
perigee height: 584 km
apogee height: 1075 km
right ascension of ascending node: 274.6816°
argument of perigee: 10.4022°
revolutions per day: 14.18679295
mean anomaly at epoch: 349.5978°
orbit number at epoch: 0

The dashed part of the orbit path shows where the satellite is in the earth's shadow,  

DLR